FLOCK 4V-3 (46322 NORAD) Tracking and Keplerian Element Data
This shows tracking and keplerian element data for the satellite.
Feedback or suggestion? Click here.
Element | Value |
Catalog | 46322 |
Name | FLOCK 4V-3 |
Epoch Orbit | 2057 |
Epoch Day | 17.76825232 |
Epoch Year | 2021 |
RAAN | 94.4326 |
Inclination | 97.5054 |
Eccentricity | 0.0004056 |
Argument of Perigee | 140.3507 |
Mean Anonmoly | 219.802 |
Mean Motion | 15.11069004 |
Decay Rate | 4.85E-06 |
L1 | 1 46322U 20061BC 21017.76825232 .00000485 00000-0 32748-4 0 9997 |
L2 | 2 46322 97.5054 94.4326 0004056 140.3507 219.8020 15.11069004 20575 |
Live tracking and technical data element details for FLOCK 4V-3 (NORAD 46322). FLOCK 4V-3 can be tracked NOW for your location showing map with azimuth and elevation plus other details from your city location.
Track the satellite on the map from your city or location and see movement details for azimuth, elevation, latitude, longitude, range, height, and movement on the map or in text.
IsCatalogInMostPopularTable: catalog: 46322, numindb: 32
Update: records affected: 1
GetName: 46322 FLOCK 4V-3
Hit Count: updated at: Tue, 19 Jan 2021 03:18:30 GMT